Home   Weather   Iași   Past weeks
Flag for Romania

Past Weather in Iași, Romania — Yesterday and Last 2 Weeks

Now
46 °F

Clear.


Feels Like: 42 °F
Forecast: 62 / 32 °F
Wind: 9 mph from North

Location: Iasi Airport

Current Time: Mar 23, 2019 at 7:25:36 pm

Latest Report: Mar 23, 2019 at 7:00 pm


Visibility: 10 mi

Pressure: 30.24 "Hg

Humidity: 27%

Dew Point: 14 °F

Location of IașiLocation

Past Weather in Iași — Graph

°F

Iași Temperature Yesterday

Maximum temperature yesterday: 59 °F (at 1:30 pm)
Minimum temperature yesterday: 43 °F (at 2:30 am)
Average temperature yesterday: 52 °F

High & Low Weather Summary for the Past Weeks

 TemperatureHumidityPressure
High75 °F (Mar 18, 3:00 pm)93% (Mar 20, 5:00 am)30.54 "Hg (Mar 20, 5:00 am)
Low30 °F (Mar 13, 3:30 am)18% (Mar 10, 3:30 pm)29.53 "Hg (Mar 16, 11:30 am)
Average48 °F52%30.01 "Hg
* Reported Mar 8 6:00 pm — Mar 23 6:00 pm, Iași. Weather by CustomWeather, © 2019

Note: Actual official high and low records may vary slightly from our data, if they occured in-between our weather recording intervals... More about our weather records

Advertising

Iași Weather History for the Previous 24 Hours

Scroll right to see more
 ConditionsComfort  
Time TempWeatherWind HumidityBarometerVisibility
6:00 pm
Sat, Mar 23
50 °FSunny.14 mph24%30.24 "Hg10 mi
5:30 pm52 °FSunny.17 mph20%30.21 "Hg10 mi
5:00 pm54 °FSunny.18 mph19%30.21 "Hg10 mi
4:30 pm54 °FSunny.21 mph19%30.21 "Hg10 mi
4:00 pm54 °FSunny.21 mph19%30.21 "Hg10 mi
3:30 pm54 °FSunny.18 mph19%30.24 "Hg10 mi
3:00 pm54 °FSunny.21 mph19%30.24 "Hg10 mi
2:30 pm54 °FSunny.21 mph21%30.24 "Hg10 mi
2:00 pm52 °FPassing clouds.22 mph20%30.24 "HgN/A
1:30 pm52 °FPassing clouds.21 mph20%30.27 "HgN/A
1:00 pm50 °FSunny.18 mph24%30.27 "Hg10 mi
12:30 pm50 °FSunny.16 mph25%30.27 "Hg10 mi
12:00 pm50 °FSunny.18 mph25%30.27 "Hg10 mi
11:30 am48 °FSunny.17 mph27%30.30 "Hg10 mi
11:00 am48 °FSunny.18 mph27%30.30 "Hg10 mi
10:30 am46 °FSunny.20 mph29%30.30 "Hg10 mi
10:00 am46 °FSunny.18 mph32%30.30 "Hg10 mi
9:30 am45 °FSunny.20 mph34%30.30 "Hg10 mi
9:00 am45 °FSunny.21 mph34%30.33 "Hg10 mi
8:30 am43 °FSunny.14 mph39%30.30 "Hg10 mi
8:00 am41 °FSunny.14 mph45%30.30 "Hg10 mi
7:30 am39 °FSunny.9 mph52%30.30 "Hg10 mi
7:00 am39 °FSunny.10 mph52%30.30 "Hg10 mi
6:30 am37 °FSunny.12 mph56%30.30 "Hg10 mi
6:00 am37 °FClear.10 mph56%30.30 "Hg10 mi
5:30 am37 °FClear.13 mph60%30.30 "Hg10 mi
5:00 am41 °FClear.12 mph61%30.30 "Hg10 mi
4:30 am41 °FClear.13 mph70%30.27 "Hg10 mi
4:00 am43 °FClear.9 mph66%30.27 "Hg10 mi
3:30 am43 °FClear.8 mph71%30.27 "Hg10 mi
2:30 am45 °FPassing clouds.12 mph76%30.30 "HgN/A
2:00 am46 °FPassing clouds.13 mph71%30.30 "HgN/A
1:30 am48 °FPassing clouds.12 mph66%30.30 "HgN/A
1:00 am46 °FClear.8 mph71%30.30 "Hg10 mi
12:30 am48 °FPassing clouds.10 mph66%30.30 "HgN/A
12:00 am50 °FPassing clouds.12 mph62%30.30 "HgN/A
11:30 pm
Fri, Mar 22
52 °FPassing clouds.14 mph62%30.30 "HgN/A
11:00 pm50 °FPassing clouds.12 mph67%30.30 "HgN/A
10:30 pm52 °FPassing clouds.13 mph62%30.30 "HgN/A
10:00 pm52 °FPassing clouds.10 mph62%30.30 "HgN/A
9:30 pm52 °FPassing clouds.10 mph62%30.30 "HgN/A
9:00 pm54 °FPassing clouds.10 mph58%30.30 "HgN/A
8:30 pm55 °FPassing clouds.14 mph55%30.30 "HgN/A
8:00 pm55 °FClear.15 mph55%30.27 "Hg10 mi
7:30 pm55 °FOvercast.18 mph55%30.27 "HgN/A
7:00 pm55 °FOvercast.17 mph55%30.27 "HgN/A
Weather by CustomWeather, © 2019

See weather overview